Regional Weather Roundup
Issued by NWS

Home | Current Version | Previous Version | Text Only | Print | Product List | Glossary On
Versions: 1 2 3 4 5 6 7 8 9 10 11 12 13 14 15 16 17 18 19 20 21 22 23 24 25 26 27 28 29 30 31 32 33 34 35 36 37 38 39 40 41 42 43 44 45 46 47 48 49 50
111
ASUS43 KLOT 260309
RWRIL

ILLINOIS REGIONAL WEATHER ROUNDUP
NATIONAL WEATHER SERVICE CHICAGO/ROMEOVILLE IL
1000 PM CDT SUN JUN 25 2017

NOTE: "FAIR" INDICATES FEW OR NO CLOUDS BELOW 12,000 FEET WITH NO
SIGNIFICANT WEATHER AND/OR OBSTRUCTIONS TO VISIBILITY.

* THESE STATIONS ARE NOT UNDER NWS QUALITY CONTROL. THEY ALSO MAY NOT
  REPORT WEATHER SUCH AS PRECIPITATION OR FOG.

ILZ001-002-007-009-015-016-024-260400-
NORTHWEST ILLINOIS

CITY           SKY/WX    TMP DP  RH WIND       PRES   REMARKS
MOLINE         CLEAR     57  50  77 SW3       30.15R
STERLING*      CLEAR     58  51  78 W5        30.15R
SAVANNA*       CLEAR     63  49  61 W7        30.14S
$$

ILZ003-004-008-010-011-017-018-260400-
NORTH CENTRAL ILLINOIS

CITY           SKY/WX    TMP DP  RH WIND       PRES   REMARKS
ROCKFORD       MOCLDY    60  51  72 W6        30.13S
FREEPORT*      CLEAR     55  49  82 SW5       30.15S
ROCHELLE*      CLEAR     57  50  78 W5        30.14S
DE KALB*       MOCLDY    60  49  68 W7        30.13S
PERU*          CLEAR     58  49  72 W6        30.15S
$$

ILZ005-006-012>014-019>023-260400-
NORTHEAST ILLINOIS

CITY           SKY/WX    TMP DP  RH WIND       PRES   REMARKS
CHICAGO-OHARE  PTCLDY    62  49  62 W8        30.10S
CHICAGO-MIDWAY PTCLDY    63  49  60 W8        30.11R
AURORA         PTCLDY    59  50  72 W8        30.13S
LANSING*       CLEAR     61  47  59 W9        30.11S
JOLIET*        CLEAR     63  50  63 W5        30.13S
WAUKEGAN       CLOUDY    56  54  93 VRB3      30.10R
DUPAGE AIRPORT CLEAR     60  50  69 W10       30.11R
WHEELING       MOCLDY    62  51  67 W7        30.11S
MORRIS*        CLEAR     58  49  71 NW8       30.12S
ROMEOVILLE*    CLEAR     60  47  61 W9        30.13R
NORTHERLY ISL    N/A     64  47  53 SW10        N/A
$$

LMZ740>746-260400-
SOUTHERN LAKE MICHIGAN

STATION/POSITION SKY/WX   TEMP    WIND        PRES    VSBY  WAVE
                          AIR SEA DIR/SP/G                  HT/PER
                          (F)     (DEG/KT/KT) (MB)    (MI)  (FT/S)
SOUTHERN BUOY              63 62  310/ 14/ 16 1017.7          2/ 4
WILMETTE HARBOR            63 64  270/ 12/ 14   N/A           2/ 3
HARRISON CRIB              65     290/ 17/ 20   N/A
BURNHAM HARBOR             64                   N/A
CALUMET HARBOR             64     270/  4/ 12 1018.9R
BURNS HARBOR               65     290/ 18/ 21 1019.3R
MICHIGAN CITY              65     270/ 20/ 22   N/A
MICHIGAN CITY 6N           65 67  300/ 16/ 19   N/A           4/ 4
ST. JOSEPH                 66 69  310/ 19/ 23 1018.5          3/ 4
$$

ILZ025>027-034>036-040-047-049-050-058-095>099-260400-
WEST-CENTRAL ILLINOIS

CITY           SKY/WX    TMP DP  RH WIND       PRES   REMARKS
QUINCY         CLEAR     62  48  60 NW3       30.18S
GALESBURG*     CLEAR     58  49  72 CALM      30.17S
MACOMB*        CLEAR     56  49  77 W6        30.19S
JACKSONVILLE*  MOCLDY    60  49  68 W5        30.18S
PITTSFIELD*    CLEAR     62  51  66 CALM      30.20R
$$

ILZ028>032-037-038-041>044-048-051>054-059>061-260400-
CENTRAL ILLINOIS

CITY           SKY/WX    TMP DP  RH WIND       PRES   REMARKS
PONTIAC        CLEAR     61  52  72 W6        30.16R
BLOOMINGTON    CLEAR     62  50  64 NW5       30.18R
DECATUR        PTCLDY    65  46  50 W7        30.17R
PEORIA         CLEAR     60  51  72 CALM      30.16R
LACON*         CLEAR     56  53  88 CALM      30.15R
LINCOLN*       CLEAR     64  49  59 CALM      30.17R
SPRINGFIELD    MOCLDY    62  51  67 W7        30.17S
TAYLORVILLE    CLEAR     58  48  69 W5        30.18R
$$

ILZ033-039-045-046-055>057-062-063-260400-
EAST-CENTRAL ILLINOIS

CITY           SKY/WX    TMP DP  RH WIND       PRES   REMARKS
CHAMPAIGN      CLEAR     59  50  72 NW6       30.16R
RANTOUL*       CLEAR     64  51  62 NW7       30.16R
MATTOON        CLEAR     59  51  75 W7        30.16R
PARIS*         CLEAR     57  51  80 W3        30.16R
$$

ILZ079-100>102-260400-
SOUTHWEST ILLINOIS

CITY           SKY/WX    TMP DP  RH WIND       PRES   REMARKS
ALTON          CLEAR     63  52  67 NW6       30.19R
BELLEVILLE     PTCLDY    69  48  48 N5        30.19R
CAHOKIA*       MOCLDY    72  44  36 N8        30.17R
SPARTA*        CLEAR     70  49  47 CALM      30.19R
$$

ILZ064>066-069>071-074>076-080>082-084>086-088>090-092>094-260400-
SOUTH-CENTRAL ILLINOIS

CITY           SKY/WX    TMP DP  RH WIND       PRES   REMARKS
CARBONDALE     PTCLDY    66  62  87 N7        30.17R
CAIRO*         CLEAR     68  63  84 CALM      30.16R
EFFINGHAM*     CLEAR     65  49  56 W6        30.19R
MARION         PTCLDY    73  52  46 N5        30.17R
MT. VERNON     CLEAR     67  49  52 N3        30.17R
CENTRALIA*     PTCLDY    67  51  56 N6        30.17R
SALEM*         CLEAR     65  50  57 N3        30.18R
METROPOLIS*    PTCLDY    67  60  76 CALM      30.16S
$$

ILZ067-068-072-073-078-083-087-091-260400-
SOUTHEAST ILLINOIS

CITY           SKY/WX    TMP DP  RH WIND       PRES   REMARKS
LAWRENCEVILLE  CLEAR     64  52  64 NW6       30.16R
FLORA*         CLEAR     67  49  50 NW5       30.18R
FAIRFIELD*     CLEAR     67  49  51 CALM      30.16R
HARRISBURG*    CLOUDY    66  58  74 NW5       30.17R
ROBINSON*      CLEAR     58  53  82 W3        30.16S
CARMI*         PTCLDY    65  56  72 NW7       30.16R
$$

ABBREVIATIONS USED IN REMARKS
   TC - TEMPERATURE IN CELSIUS
  WCI - WIND CHILL INDEX
   HX - HEAT INDEX
  VSB - VISIBILITY
$$





USA.gov is the U.S. government's official web portal to all federal, state and local government web resources and services.